THORAD AGENA D DEB

Satellite information

Favourite Embed

Satellite Type and Status

DEBRISIN ORBIT

Key statistics

Satellite THORAD AGENA D DEB at a glance.

Uptime

20179

Days in orbit

Revolutions

≈ 14.2

Per day

Orbit

SSO

Sun Synchronous Orbit

Inclination

99.8

Latest

Satellite identification and parameters

Extended collection of information and parameters for THORAD AGENA D DEB.

Object identification

Identified? True

Debris? True

Object name: THORAD AGENA D DEB

International designator: 1970-025HY

Object number (NORAD): 5024

Object ID (CCSDS): 5024

Country: UNITED STATES OF AMERICA (US)

Current information (Y/N): Y

RCS size: SMALL

Orbital parameters

Period: 101.126 minutes

Inclination: 99.797 deg

SMA: 7190.114 km

Apoapsis: 873.738 km

Periapsis: 750.22 km

RAAN: 108.6715 deg

Eccentricy: 0.0085894

Argument of periapsis: 18.6161 deg

Mean anomaly: 341.8124 deg

Mean motion: 14.23964267 rev/day

Mean motion (dot): 0.00001126 rev/day2

B* drag term: 0.00049489 1/REarth

Two-line elements (TLE)

Creation date: July 6, 2025, 6:05 p.m.

Reference frame: TEME

Reference center: EARTH

Epoch: July 6, 2025, 8:26 a.m. UTC

TLE line 0: 0 THORAD AGENA D DEB

TLE line 1: 1 05024U 70025HY 25187.35169275 .00001126 00000-0 49489-3 0 9993

TLE line 2: 2 05024 99.7970 108.6715 0085894 18.6161 341.8124 14.23964267822761

Live tracking on map

Real-time ground track for satellite THORAD AGENA D DEB.

In-orbit conjunctions

A list of the most updated potential collisions computed for object THORAD AGENA D DEB.

Target Orbit TCA Probability of collision Miss distance Type
CZ-6A DEB LEO 2025-01-23 01:14:57 0.0002978722 915.0 (m) DEBRIS
FENGYUN 1C DEB SSO 2024-09-27 00:56:27 0.0001154343 631.0 (m) DEBRIS
FENGYUN 1C DEB SSO 2024-08-15 13:53:37 0.0001119415 324.0 (m) DEBRIS

Associated space launch

Meteorological research and development satellite

THORAD AGENA D DEB was lifted into orbit during the mission ‘Thorad SLV-2G Agena D | Nimbus 4’, on board a Thorad SLV-2G Agena D space rocket.

The launch took place on April 8, 1970, 8:17 a.m. from Space Launch Complex 2E.

For more information about the launch, click the button.

Launch to space Thorad SLV-2G Agena D | Nimbus 4
Thorad SLV-2G Agena D | Nimbus 4

Agency: N/A

Status: Launch Successful

Launch date: April 8, 1970, 8:17 a.m. UTC

Rocket: Thorad SLV-2G Agena D

Launch pad: Space Launch Complex 2E

Location: Vandenberg SFB, CA, USA

...

Latest news about this satellite

There are no fresh news available about this satellite. Check back as we update our databases every day.


Newsletter sign-up

Weekly statistics, charts and insights to help you stay on top of the space industry.